23-07-2022, 00:00:05,    200,    0.0,   15.3,   0.00,   0.00, 1015.6,   94.2, -999.0
23-07-2022, 00:00:15,    200,    0.0,   15.3,   0.00,   0.00, 1015.6,   94.2, -999.0
23-07-2022, 00:00:25,    200,    0.0,   15.2,   0.00,   0.00, 1015.6,   94.1, -999.0
23-07-2022, 00:00:34,    200,    0.0,   15.3,   0.00,   0.00, 1015.6,   94.2, -999.0
23-07-2022, 00:00:45,    200,    0.0,   15.2,   0.00,   0.00, 1015.6,   94.2, -999.0
23-07-2022, 00:00:55,    200,    0.0,   15.3,   0.00,   0.00, 1015.6,   94.2, -999.0
23-07-2022, 00:01:04,    200,    0.0,   15.2,   0.00,   0.00, 1015.6,   94.2, -999.0
23-07-2022, 00:01:14,    200,    0.0,   15.2,   0.00,   0.00, 1015.6,   94.3, -999.0
23-07-2022, 00:01:24,    201,    0.0,   15.3,   0.00,   0.00, 1015.6,   94.3, -999.0
23-07-2022, 00:01:34,    202,    0.0,   15.2,   0.00,   0.00, 1015.6,   94.4, -999.0
23-07-2022, 00:01:44,    203,    0.0,   15.2,   0.00,   0.00, 1015.6,   94.3, -999.0
23-07-2022, 00:01:54,    202,    0.0,   15.3,   0.00,   0.00, 1015.6,   94.4, -999.0
23-07-2022, 00:02:04,    202,    0.0,   15.4,   0.00,   0.00, 1015.6,   94.5, -999.0
23-07-2022, 00:02:14,    202,    0.0,   15.3,   0.00,   0.00, 1015.6,   94.5, -999.0
23-07-2022, 00:02:24,    202,    0.0,   15.3,   0.00,   0.00, 1015.6,   94.5, -999.0
23-07-2022, 00:02:34,    202,    0.0,   15.2,   0.00,   0.00, 1015.6,   94.4, -999.0
23-07-2022, 00:02:44,    201,    0.0,   15.2,   0.00,   0.00, 1015.6,   94.5, -999.0
23-07-2022, 00:02:54,    202,    0.0,   15.3,   0.00,   0.00, 1015.6,   94.5, -999.0
23-07-2022, 00:03:04,    202,    0.0,   15.3,   0.00,   0.00, 1015.6,   94.5, -999.0
23-07-2022, 00:03:14,    202,    0.0,   15.3,   0.00,   0.00, 1015.6,   94.6, -999.0
23-07-2022, 00:03:24,    201,    0.0,   15.3,   0.00,   0.00, 1015.6,   94.6, -999.0
23-07-2022, 00:03:33,    201,    0.0,   15.2,   0.00,   0.00, 1015.6,   94.6, -999.0
23-07-2022, 00:03:43,    202,    0.0,   15.3,   0.00,   0.00, 1015.6,   94.7, -999.0
23-07-2022, 00:03:54,    202,    0.0,   15.3,   0.00,   0.00, 1015.6,   94.8, -999.0
23-07-2022, 00:04:03,    202,    0.0,   15.2,   0.00,   0.00, 1015.6,   94.8, -999.0
23-07-2022, 00:04:13,    201,    0.0,   15.3,   0.00,   0.00, 1015.6,   94.8, -999.0
23-07-2022, 00:04:24,    202,    0.0,   15.2,   0.00,   0.00, 1015.6,   94.6, -999.0
23-07-2022, 00:04:33,    201,    0.0,   15.3,   0.00,   0.00, 1015.6,   94.7, -999.0
23-07-2022, 00:04:43,    202,    0.0,   15.4,   0.00,   0.00, 1015.6,   94.7, -999.0
23-07-2022, 00:04:53,    201,    0.0,   15.3,   0.00,   0.00, 1015.6,   94.8, -999.0
23-07-2022, 00:05:03,    201,    0.0,   15.3,   0.00,   0.00, 1015.6,   94.7, -999.0
23-07-2022, 00:05:13,    202,    0.0,   15.3,   0.00,   0.00, 1015.6,   94.8, -999.0
23-07-2022, 00:05:23,    201,    0.0,   15.3,   0.00,   0.00, 1015.6,   94.7, -999.0
23-07-2022, 00:05:33,    204,    0.0,   15.3,   0.00,   0.00, 1015.6,   94.8, -999.0
23-07-2022, 00:05:43,    204,    0.0,   15.2,   0.00,   0.00, 1015.6,   94.7, -999.0
23-07-2022, 00:05:53,    204,    0.0,   15.2,   0.00,   0.00, 1015.6,   94.8, -999.0
23-07-2022, 00:06:03,    204,    0.0,   15.2,   0.00,   0.00, 1015.6,   94.8, -999.0
23-07-2022, 00:06:12,    204,    0.0,   15.2,   0.00,   0.00, 1015.6,   94.9, -999.0
23-07-2022, 00:06:23,    204,    0.0,   15.3,   0.00,   0.00, 1015.6,   94.8, -999.0
23-07-2022, 00:06:33,    204,    0.0,   15.3,   0.00,   0.00, 1015.6,   94.8, -999.0
23-07-2022, 00:06:42,    204,    0.0,   15.3,   0.00,   0.00, 1015.7,   94.9, -999.0
23-07-2022, 00:06:53,    204,    0.0,   15.3,   0.00,   0.00, 1015.6,   95.1, -999.0
23-07-2022, 00:07:03,    204,    0.0,   15.3,   0.00,   0.00, 1015.6,   95.0, -999.0
23-07-2022, 00:07:12,    204,    0.0,   15.3,   0.00,   0.00, 1015.6,   95.0, -999.0
23-07-2022, 00:07:22,    204,    0.0,   15.3,   0.00,   0.00, 1015.6,   94.9, -999.0
23-07-2022, 00:07:32,    204,    0.0,   15.2,   0.00,   0.00, 1015.6,   95.0, -999.0
23-07-2022, 00:07:42,    204,    0.0,   15.3,   0.00,   0.00, 1015.6,   95.0, -999.0
23-07-2022, 00:07:52,    203,    0.0,   15.1,   0.00,   0.00, 1015.6,   95.0, -999.0
23-07-2022, 00:08:02,    203,    0.0,   15.1,   0.00,   0.00, 1015.6,   95.1, -999.0
23-07-2022, 00:08:12,    204,    0.0,   15.1,   0.00,   0.00, 1015.6,   95.1, -999.0
23-07-2022, 00:08:22,    204,    0.0,   15.3,   0.00,   0.00, 1015.6,   95.1, -999.0
23-07-2022, 00:08:32,    204,    0.0,   15.2,   0.00,   0.00, 1015.6,   95.2, -999.0
23-07-2022, 00:08:42,    204,    0.0,   15.3,   0.00,   0.00, 1015.6,   95.2, -999.0
23-07-2022, 00:08:52,    204,    0.0,   15.3,   0.00,   0.00, 1015.6,   95.3, -999.0
23-07-2022, 00:09:02,    204,    0.0,   15.3,   0.00,   0.00, 1015.6,   95.2, -999.0
23-07-2022, 00:09:12,    204,    0.0,   15.2,   0.00,   0.00, 1015.6,   95.2, -999.0
23-07-2022, 00:09:22,    204,    0.0,   15.3,   0.00,   0.00, 1015.6,   95.3, -999.0
23-07-2022, 00:09:32,    204,    0.0,   15.4,   0.00,   0.00, 1015.6,   95.3, -999.0
23-07-2022, 00:09:41,    205,    0.0,   15.3,   0.00,   0.00, 1015.6,   95.4, -999.0
23-07-2022, 00:09:51,    204,    0.0,   15.3,   0.00,   0.00, 1015.6,   95.3, -999.0
23-07-2022, 00:10:02,    205,    0.0,   15.3,   0.00,   0.00, 1015.6,   95.3, -999.0
23-07-2022, 00:10:11,    205,    0.0,   15.2,   0.00,   0.00, 1015.6,   95.3, -999.0
23-07-2022, 00:10:21,    205,    0.0,   15.2,   0.00,   0.00, 1015.6,   95.4, -999.0
23-07-2022, 00:10:31,    205,    0.0,   15.3,   0.00,   0.00, 1015.6,   95.4, -999.0
23-07-2022, 00:10:41,    205,    0.0,   15.2,   0.00,   0.00, 1015.6,   95.4, -999.0
23-07-2022, 00:10:51,    205,    0.0,   15.3,   0.00,   0.00, 1015.6,   95.4, -999.0
23-07-2022, 00:11:01,    205,    0.0,   15.3,   0.00,   0.00, 1015.6,   95.4, -999.0
23-07-2022, 00:11:11,    205,    0.0,   15.2,   0.00,   0.00, 1015.6,   95.5, -999.0
23-07-2022, 00:11:21,    205,    0.0,   15.1,   0.00,   0.00, 1015.6,   95.6, -999.0
23-07-2022, 00:11:31,    205,    0.0,   15.2,   0.00,   0.00, 1015.6,   95.6, -999.0
23-07-2022, 00:11:41,    204,    0.0,   15.3,   0.00,   0.00, 1015.6,   95.7, -999.0
23-07-2022, 00:11:51,    205,    0.0,   15.3,   0.00,   0.00, 1015.6,   95.6, -999.0
23-07-2022, 00:12:01,    205,    0.0,   15.3,   0.00,   0.00, 1015.6,   95.7, -999.0
23-07-2022, 00:12:11,    205,    0.0,   15.2,   0.00,   0.00, 1015.6,   95.6, -999.0
23-07-2022, 00:12:20,    205,    0.0,   15.2,   0.00,   0.00, 1015.6,   95.6, -999.0
23-07-2022, 00:12:31,    205,    0.0,   15.2,   0.00,   0.00, 1015.5,   95.7, -999.0
23-07-2022, 00:12:41,    205,    0.0,   15.2,   0.00,   0.00, 1015.6,   95.7, -999.0
23-07-2022, 00:12:50,    205,    0.0,   15.2,   0.00,   0.00, 1015.6,   95.6, -999.0
23-07-2022, 00:13:00,    205,    0.0,   15.3,   0.00,   0.00, 1015.6,   95.6, -999.0
23-07-2022, 00:13:11,    195,    0.0,   15.3,   0.00,   0.00, 1015.6,   95.8, -999.0
23-07-2022, 00:13:20,    195,    0.0,   15.2,   0.00,   0.00, 1015.6,   95.8, -999.0
23-07-2022, 00:13:30,    195,    0.0,   15.2,   0.00,   0.00, 1015.6,   95.6, -999.0
23-07-2022, 00:13:40,    195,    0.0,   15.2,   0.00,   0.00, 1015.6,   95.8, -999.0
23-07-2022, 00:13:50,    195,    0.0,   15.2,   0.00,   0.00, 1015.6,   95.7, -999.0
23-07-2022, 00:14:00,    195,    0.0,   15.3,   0.00,   0.00, 1015.6,   95.8, -999.0
23-07-2022, 00:14:10,    195,    0.0,   15.2,   0.00,   0.00, 1015.6,   95.9, -999.0
23-07-2022, 00:14:20,    195,    0.0,   15.2,   0.00,   0.00, 1015.6,   95.9, -999.0
23-07-2022, 00:14:30,    195,    0.0,   15.3,   0.00,   0.00, 1015.6,   95.9, -999.0
23-07-2022, 00:14:40,    195,    0.0,   15.2,   0.00,   0.00, 1015.6,   96.0, -999.0
23-07-2022, 00:14:50,    202,    0.0,   15.2,   0.00,   0.00, 1015.6,   95.8, -999.0
23-07-2022, 00:15:00,    206,    0.0,   15.2,   0.00,   0.00, 1015.5,   95.8, -999.0
23-07-2022, 00:15:10,    206,    0.0,   15.2,   0.00,   0.00, 1015.6,   95.8, -999.0
23-07-2022, 00:15:20,    206,    0.0,   15.2,   0.00,   0.00, 1015.6,   96.0, -999.0
23-07-2022, 00:15:29,    206,    0.0,   15.1,   0.00,   0.00, 1015.6,   96.1, -999.0
23-07-2022, 00:15:40,    206,    0.0,   15.2,   0.00,   0.00, 1015.6,   96.0, -999.0
23-07-2022, 00:15:49,    206,    0.0,   15.1,   0.00,   0.00, 1015.6,   96.1, -999.0
23-07-2022, 00:15:59,    206,    0.0,   15.2,   0.00,   0.00, 1015.6,   96.0, -999.0
23-07-2022, 00:16:10,    206,    0.0,   15.2,   0.00,   0.00, 1015.6,   96.0, -999.0
23-07-2022, 00:16:19,    206,    0.0,   15.1,   0.00,   0.00, 1015.5,   96.1, -999.0
23-07-2022, 00:16:29,    206,    0.0,   15.1,   0.00,   0.00, 1015.6,   96.1, -999.0
23-07-2022, 00:16:39,    206,    0.0,   15.2,   0.00,   0.00, 1015.6,   96.2, -999.0
23-07-2022, 00:16:49,    207,    0.0,   15.1,   0.00,   0.00, 1015.6,   96.1, -999.0
23-07-2022, 00:16:59,    206,    0.0,   15.2,   0.00,   0.00, 1015.6,   95.9, -999.0
23-07-2022, 00:17:09,    195,    0.0,   15.2,   0.00,   0.00, 1015.5,   96.1, -999.0
23-07-2022, 00:17:19,    195,    0.0,   15.1,   0.00,   0.00, 1015.6,   96.1, -999.0
23-07-2022, 00:17:29,    195,    0.0,   15.2,   0.00,   0.00, 1015.6,   96.1, -999.0
23-07-2022, 00:17:39,    195,    0.0,   15.2,   0.00,   0.00, 1015.5,   96.2, -999.0
23-07-2022, 00:17:49,    196,    0.0,   15.1,   0.00,   0.00, 1015.6,   96.1, -999.0
23-07-2022, 00:17:59,    195,    0.0,   15.1,   0.00,   0.00, 1015.5,   96.2, -999.0
23-07-2022, 00:18:09,    195,    0.0,   15.1,   0.00,   0.00, 1015.6,   96.3, -999.0
23-07-2022, 00:18:19,    195,    0.0,   15.1,   0.00,   0.00, 1015.6,   96.2, -999.0
23-07-2022, 00:18:28,    195,    0.0,   15.1,   0.00,   0.00, 1015.5,   96.2, -999.0
23-07-2022, 00:18:39,    195,    0.0,   15.1,   0.00,   0.00, 1015.6,   96.1, -999.0
23-07-2022, 00:18:49,    195,    0.0,   15.1,   0.00,   0.00, 1015.5,   96.1, -999.0
23-07-2022, 00:18:58,    195,    0.0,   15.1,   0.00,   0.00, 1015.6,   96.2, -999.0
23-07-2022, 00:19:08,    196,    0.0,   15.1,   0.00,   0.00, 1015.6,   96.3, -999.0
23-07-2022, 00:19:19,    195,    0.0,   15.1,   0.00,   0.00, 1015.6,   96.2, -999.0
23-07-2022, 00:19:28,    198,    0.0,   15.0,   0.00,   0.00, 1015.6,   96.2, -999.0
23-07-2022, 00:19:38,    199,    0.0,   15.1,   0.00,   0.00, 1015.6,   96.3, -999.0
23-07-2022, 00:19:48,    198,    0.0,   15.0,   0.00,   0.00, 1015.5,   96.2, -999.0
23-07-2022, 00:19:58,    199,    0.0,   15.1,   0.00,   0.00, 1015.6,   96.1, -999.0
23-07-2022, 00:20:08,    202,    0.0,   15.0,   0.00,   0.00, 1015.6,   96.2, -999.0
23-07-2022, 00:20:18,    203,    0.0,   15.1,   0.00,   0.00, 1015.6,   96.3, -999.0
23-07-2022, 00:20:28,    218,    0.0,   15.1,   0.00,   0.00, 1015.6,   96.3, -999.0
23-07-2022, 00:20:38,    225,    0.0,   15.1,   0.00,   0.00, 1015.6,   96.4, -999.0
23-07-2022, 00:20:48,    225,    0.0,   15.0,   0.00,   0.00, 1015.6,   96.4, -999.0
23-07-2022, 00:20:58,    225,    0.0,   15.1,   0.00,   0.00, 1015.5,   96.5, -999.0
23-07-2022, 00:21:08,    225,    0.0,   15.1,   0.00,   0.00, 1015.6,   96.5, -999.0
23-07-2022, 00:21:18,    225,    0.0,   15.1,   0.00,   0.00, 1015.6,   96.4, -999.0
23-07-2022, 00:21:28,    225,    0.0,   15.1,   0.00,   0.00, 1015.5,   96.4, -999.0
23-07-2022, 00:21:37,    225,    0.0,   15.1,   0.00,   0.00, 1015.6,   96.6, -999.0
23-07-2022, 00:21:48,    225,    0.0,   15.0,   0.00,   0.00, 1015.6,   96.5, -999.0
23-07-2022, 00:21:57,    225,    0.0,   15.1,   0.00,   0.00, 1015.5,   96.6, -999.0
23-07-2022, 00:22:07,    225,    0.0,   15.1,   0.00,   0.00, 1015.6,   96.6, -999.0
23-07-2022, 00:22:17,    225,    0.0,   15.1,   0.00,   0.00, 1015.5,   96.7, -999.0
23-07-2022, 00:22:27,    225,    0.0,   15.1,   0.00,   0.00, 1015.6,   96.7, -999.0
23-07-2022, 00:22:37,    225,    0.0,   15.0,   0.00,   0.00, 1015.5,   96.7, -999.0
23-07-2022, 00:22:47,    225,    0.0,   15.1,   0.00,   0.00, 1015.5,   96.9, -999.0
23-07-2022, 00:22:57,    225,    0.0,   15.1,   0.00,   0.00, 1015.6,   96.8, -999.0
23-07-2022, 00:23:07,    225,    0.0,   15.1,   0.00,   0.00, 1015.5,   96.9, -999.0
23-07-2022, 00:23:17,    225,    0.0,   15.0,   0.00,   0.00, 1015.5,   96.9, -999.0
23-07-2022, 00:23:27,    225,    0.0,   15.2,   0.00,   0.00, 1015.6,   97.0, -999.0
23-07-2022, 00:23:37,    216,    0.0,   15.0,   0.00,   0.00, 1015.6,   97.1, -999.0
23-07-2022, 00:23:47,    216,    0.0,   15.1,   0.00,   0.00, 1015.6,   97.0, -999.0
23-07-2022, 00:23:57,    216,    0.0,   15.1,   0.00,   0.00, 1015.5,   97.1, -999.0
23-07-2022, 00:24:07,    216,    0.0,   15.1,   0.00,   0.00, 1015.5,   97.1, -999.0
23-07-2022, 00:24:17,    216,    0.0,   15.1,   0.00,   0.00, 1015.6,   97.1, -999.0
23-07-2022, 00:24:27,    216,    0.0,   15.1,   0.00,   0.00, 1015.6,   97.0, -999.0
23-07-2022, 00:24:36,    216,    0.0,   15.1,   0.00,   0.00, 1015.5,   97.1, -999.0
23-07-2022, 00:24:46,    216,    0.0,   15.1,   0.00,   0.00, 1015.5,   97.0, -999.0
23-07-2022, 00:24:57,    216,    0.0,   15.0,   0.00,   0.00, 1015.6,   97.1, -999.0
23-07-2022, 00:25:06,    216,    0.0,   15.0,   0.00,   0.00, 1015.6,   97.1, -999.0
23-07-2022, 00:25:16,    216,    0.0,   15.0,   0.00,   0.00, 1015.6,   97.1, -999.0
23-07-2022, 00:25:27,    216,    0.0,   15.0,   0.00,   0.00, 1015.6,   97.0, -999.0
23-07-2022, 00:25:36,    214,    0.0,   15.0,   0.00,   0.00, 1015.5,   96.9, -999.0
23-07-2022, 00:25:46,    215,    0.0,   14.9,   0.00,   0.00, 1015.6,   97.0, -999.0
23-07-2022, 00:25:56,    214,    0.0,   14.8,   0.00,   0.00, 1015.5,   96.8, -999.0
23-07-2022, 00:26:06,    215,    0.0,   14.9,   0.00,   0.00, 1015.5,   97.0, -999.0
23-07-2022, 00:26:16,    215,    0.0,   15.0,   0.00,   0.00, 1015.5,   97.0, -999.0
23-07-2022, 00:26:26,    215,    0.0,   15.0,   0.00,   0.00, 1015.5,   97.0, -999.0
23-07-2022, 00:26:36,    215,    0.0,   15.0,   0.00,   0.00, 1015.6,   97.1, -999.0
23-07-2022, 00:26:46,    215,    0.0,   15.0,   0.00,   0.00, 1015.6,   97.2, -999.0
23-07-2022, 00:26:56,    214,    0.0,   14.9,   0.00,   0.00, 1015.6,   97.1, -999.0
23-07-2022, 00:27:06,    214,    0.0,   14.9,   0.00,   0.00, 1015.6,   97.2, -999.0
23-07-2022, 00:27:15,    223,    0.0,   15.0,   0.00,   0.00, 1015.6,   97.2, -999.0
23-07-2022, 00:27:26,    231,    0.0,   15.0,   0.00,   0.00, 1015.6,   97.4, -999.0
23-07-2022, 00:27:36,    232,    0.0,   15.0,   0.00,   0.00, 1015.6,   97.2, -999.0
23-07-2022, 00:27:45,    234,    0.0,   14.9,   0.00,   0.00, 1015.5,   97.3, -999.0
23-07-2022, 00:27:56,    233,    0.0,   15.0,   0.00,   0.00, 1015.5,   97.3, -999.0
23-07-2022, 00:28:05,    233,    0.0,   15.0,   0.00,   0.00, 1015.5,   97.3, -999.0
23-07-2022, 00:28:15,    233,    0.0,   14.9,   0.00,   0.00, 1015.5,   97.2, -999.0
23-07-2022, 00:28:25,    233,    0.0,   14.8,   0.00,   0.00, 1015.5,   97.1, -999.0
23-07-2022, 00:28:35,    234,    0.0,   14.9,   0.00,   0.00, 1015.5,   97.3, -999.0
23-07-2022, 00:28:45,    234,    0.0,   14.9,   0.00,   0.00, 1015.5,   97.2, -999.0
23-07-2022, 00:28:55,    234,    0.0,   14.9,   0.00,   0.00, 1015.5,   97.3, -999.0
23-07-2022, 00:29:05,    234,    0.0,   14.9,   0.00,   0.00, 1015.5,   97.2, -999.0
23-07-2022, 00:29:15,    233,    0.0,   14.9,   0.00,   0.00, 1015.6,   97.3, -999.0
23-07-2022, 00:29:25,    233,    0.0,   14.9,   0.00,   0.00, 1015.5,   97.5, -999.0
23-07-2022, 00:29:35,    233,    0.0,   14.9,   0.00,   0.00, 1015.5,   97.5, -999.0
23-07-2022, 00:29:45,    234,    0.0,   15.0,   0.00,   0.00, 1015.5,   97.6, -999.0
23-07-2022, 00:29:55,    233,    0.0,   15.0,   0.00,   0.00, 1015.5,   97.5, -999.0
23-07-2022, 00:30:05,    233,    0.0,   15.0,   0.00,   0.00, 1015.6,   97.6, -999.0
23-07-2022, 00:30:15,    233,    0.0,   15.0,   0.00,   0.00, 1015.6,   97.6, -999.0
23-07-2022, 00:30:25,    233,    0.0,   15.0,   0.00,   0.00, 1015.6,   97.7, -999.0
23-07-2022, 00:30:34,    233,    0.0,   14.9,   0.00,   0.00, 1015.6,   97.8, -999.0
23-07-2022, 00:30:45,    232,    0.0,   14.9,   0.00,   0.00, 1015.6,   97.7, -999.0
23-07-2022, 00:30:54,    233,    0.0,   14.9,   0.00,   0.00, 1015.6,   97.7, -999.0
23-07-2022, 00:31:04,    236,    0.0,   14.9,   0.00,   0.00, 1015.6,   97.9, -999.0
23-07-2022, 00:31:14,    236,    0.0,   15.0,   0.00,   0.00, 1015.5,   97.9, -999.0
23-07-2022, 00:31:24,    236,    0.0,   15.0,   0.00,   0.00, 1015.5,   97.8, -999.0
23-07-2022, 00:31:34,    236,    0.0,   15.0,   0.00,   0.00, 1015.6,   97.8, -999.0
23-07-2022, 00:31:44,    236,    0.0,   15.0,   0.00,   0.00, 1015.6,   97.9, -999.0
23-07-2022, 00:31:54,    236,    0.0,   14.9,   0.00,   0.00, 1015.5,   98.0, -999.0
23-07-2022, 00:32:04,    236,    0.0,   15.0,   0.00,   0.00, 1015.6,   97.9, -999.0
23-07-2022, 00:32:14,    236,    0.0,   15.0,   0.00,   0.00, 1015.5,   98.0, -999.0
23-07-2022, 00:32:24,    236,    0.0,   15.0,   0.00,   0.00, 1015.5,   98.0, -999.0
23-07-2022, 00:32:34,    236,    0.0,   15.0,   0.00,   0.00, 1015.6,   98.1, -999.0
23-07-2022, 00:32:44,    236,    0.0,   15.0,   0.00,   0.00, 1015.5,   98.1, -999.0
23-07-2022, 00:32:54,    236,    0.0,   15.0,   0.00,   0.00, 1015.5,   98.0, -999.0
23-07-2022, 00:33:04,    236,    0.0,   15.0,   0.00,   0.00, 1015.6,   98.0, -999.0
23-07-2022, 00:33:14,    236,    0.0,   15.0,   0.00,   0.00, 1015.6,   98.0, -999.0
23-07-2022, 00:33:24,    236,    0.0,   15.1,   0.00,   0.00, 1015.5,   98.0, -999.0
23-07-2022, 00:33:33,    236,    0.0,   15.0,   0.00,   0.00, 1015.5,   97.9, -999.0
23-07-2022, 00:33:44,    236,    0.0,   15.0,   0.00,   0.00, 1015.6,   98.1, -999.0
23-07-2022, 00:33:54,    236,    0.0,   14.9,   0.00,   0.00, 1015.6,   98.0, -999.0
23-07-2022, 00:34:03,    236,    0.0,   14.9,   0.00,   0.00, 1015.6,   98.1, -999.0
23-07-2022, 00:34:13,    236,    0.0,   15.0,   0.00,   0.00, 1015.6,   98.1, -999.0
23-07-2022, 00:34:24,    236,    0.0,   15.0,   0.00,   0.00, 1015.6,   98.1, -999.0
23-07-2022, 00:34:33,    236,    0.0,   14.9,   0.00,   0.00, 1015.6,   98.0, -999.0
23-07-2022, 00:34:43,    236,    0.0,   14.9,   0.00,   0.00, 1015.5,   98.0, -999.0
23-07-2022, 00:34:53,    236,    0.0,   14.8,   0.00,   0.00, 1015.6,   98.0, -999.0
23-07-2022, 00:35:03,    236,    0.0,   14.9,   0.00,   0.00, 1015.6,   98.0, -999.0
23-07-2022, 00:35:13,    236,    0.0,   15.0,   0.00,   0.00, 1015.6,   98.1, -999.0
23-07-2022, 00:35:23,    236,    0.0,   14.9,   0.00,   0.00, 1015.6,   98.1, -999.0
23-07-2022, 00:35:33,    236,    0.0,   14.8,   0.00,   0.00, 1015.6,   98.0, -999.0
23-07-2022, 00:35:43,    236,    0.0,   15.0,   0.00,   0.00, 1015.6,   98.1, -999.0
23-07-2022, 00:35:53,    236,    0.0,   14.9,   0.00,   0.00, 1015.6,   98.1, -999.0
23-07-2022, 00:36:03,    236,    0.0,   14.9,   0.00,   0.00, 1015.6,   98.1, -999.0
23-07-2022, 00:36:13,    236,    0.0,   14.8,   0.00,   0.00, 1015.6,   98.1, -999.0
23-07-2022, 00:36:23,    236,    0.0,   14.9,   0.00,   0.00, 1015.6,   98.2, -999.0
23-07-2022, 00:36:33,    237,    0.0,   14.9,   0.00,   0.00, 1015.6,   98.0, -999.0
23-07-2022, 00:36:42,    237,    0.0,   14.8,   0.00,   0.00, 1015.6,   98.1, -999.0
23-07-2022, 00:36:53,    237,    0.0,   14.9,   0.00,   0.00, 1015.6,   98.2, -999.0
23-07-2022, 00:37:02,    237,    0.0,   15.0,   0.00,   0.00, 1015.6,   98.3, -999.0
23-07-2022, 00:37:12,    238,    0.0,   14.8,   0.00,   0.00, 1015.6,   98.3, -999.0
23-07-2022, 00:37:22,    237,    0.0,   14.9,   0.00,   0.00, 1015.6,   98.3, -999.0
23-07-2022, 00:37:32,    237,    0.0,   14.9,   0.00,   0.00, 1015.6,   98.4, -999.0
23-07-2022, 00:37:42,    237,    0.0,   14.9,   0.00,   0.00, 1015.6,   98.2, -999.0
23-07-2022, 00:37:52,    237,    0.0,   14.9,   0.00,   0.00, 1015.6,   98.1, -999.0
23-07-2022, 00:38:02,    237,    0.0,   14.9,   0.00,   0.00, 1015.6,   98.0, -999.0
23-07-2022, 00:38:12,    238,    0.0,   14.8,   0.00,   0.00, 1015.6,   98.1, -999.0
23-07-2022, 00:38:22,    238,    0.0,   14.9,   0.00,   0.00, 1015.6,   98.1, -999.0
23-07-2022, 00:38:32,    238,    0.0,   14.7,   0.00,   0.00, 1015.6,   98.1, -999.0
23-07-2022, 00:38:42,    238,    0.0,   14.8,   0.00,   0.00, 1015.6,   98.0, -999.0
23-07-2022, 00:38:52,    238,    0.0,   14.7,   0.00,   0.00, 1015.6,   98.0, -999.0
23-07-2022, 00:39:02,    238,    0.0,   14.8,   0.00,   0.00, 1015.6,   98.1, -999.0
23-07-2022, 00:39:12,    237,    0.0,   14.8,   0.00,   0.00, 1015.6,   98.2, -999.0
23-07-2022, 00:39:22,    238,    0.0,   14.8,   0.00,   0.00, 1015.6,   98.3, -999.0
23-07-2022, 00:39:32,    239,    0.0,   14.8,   0.00,   0.00, 1015.6,   98.3, -999.0
23-07-2022, 00:39:41,    239,    0.0,   14.8,   0.00,   0.00, 1015.6,   98.2, -999.0
23-07-2022, 00:39:51,    239,    0.0,   14.8,   0.00,   0.00, 1015.6,   98.1, -999.0
23-07-2022, 00:40:02,    239,    0.0,   14.8,   0.00,   0.00, 1015.6,   98.1, -999.0
23-07-2022, 00:40:11,    239,    0.0,   14.9,   0.00,   0.00, 1015.6,   98.3, -999.0
23-07-2022, 00:40:21,    240,    0.0,   14.9,   0.00,   0.00, 1015.6,   98.3, -999.0
23-07-2022, 00:40:31,    239,    0.0,   14.8,   0.00,   0.00, 1015.6,   98.4, -999.0
23-07-2022, 00:40:41,    239,    0.0,   14.9,   0.00,   0.00, 1015.6,   98.4, -999.0
23-07-2022, 00:40:51,    236,    0.0,   14.9,   0.00,   0.00, 1015.6,   98.3, -999.0
23-07-2022, 00:41:01,    236,    0.0,   14.8,   0.00,   0.00, 1015.6,   98.4, -999.0
23-07-2022, 00:41:11,    236,    0.0,   14.9,   0.00,   0.00, 1015.6,   98.6, -999.0
23-07-2022, 00:41:21,    236,    0.0,   14.8,   0.00,   0.00, 1015.6,   98.5, -999.0
23-07-2022, 00:41:31,    235,    0.0,   14.9,   0.00,   0.00, 1015.6,   98.4, -999.0
23-07-2022, 00:41:41,    236,    0.0,   14.8,   0.00,   0.00, 1015.6,   98.5, -999.0
23-07-2022, 00:41:51,    236,    0.0,   14.8,   0.00,   0.00, 1015.6,   98.4, -999.0
23-07-2022, 00:42:01,    236,    0.0,   14.8,   0.00,   0.00, 1015.6,   98.5, -999.0
23-07-2022, 00:42:11,    235,    0.0,   14.6,   0.00,   0.00, 1015.6,   98.3, -999.0
23-07-2022, 00:42:20,    236,    0.0,   14.8,   0.00,   0.00, 1015.6,   98.4, -999.0
23-07-2022, 00:42:31,    236,    0.0,   14.7,   0.00,   0.00, 1015.6,   98.4, -999.0
23-07-2022, 00:42:41,    236,    0.0,   14.7,   0.00,   0.00, 1015.6,   98.4, -999.0
23-07-2022, 00:42:50,    236,    0.0,   14.8,   0.00,   0.00, 1015.6,   98.4, -999.0
23-07-2022, 00:43:00,    236,    0.0,   14.8,   0.00,   0.00, 1015.6,   98.5, -999.0
23-07-2022, 00:43:11,    236,    0.0,   14.8,   0.00,   0.00, 1015.6,   98.4, -999.0
23-07-2022, 00:43:20,    236,    0.0,   14.7,   0.00,   0.00, 1015.5,   98.6, -999.0
23-07-2022, 00:43:30,    236,    0.0,   14.8,   0.00,   0.00, 1015.6,   98.3, -999.0
23-07-2022, 00:43:40,    280,    0.2,   14.6,   0.00,   0.00, 1015.6,   98.5, -999.0
23-07-2022, 00:43:50,    280,    0.6,   14.5,   0.00,   0.00, 1015.7,   98.4, -999.0
23-07-2022, 00:44:00,    280,    0.0,   14.6,   0.00,   0.00, 1015.6,   97.8, -999.0
23-07-2022, 00:44:10,    279,    0.0,   14.6,   0.00,   0.00, 1015.6,   97.6, -999.0
23-07-2022, 00:44:20,    280,    0.0,   14.6,   0.00,   0.00, 1015.6,   97.6, -999.0
23-07-2022, 00:44:30,    279,    0.0,   14.6,   0.00,   0.00, 1015.6,   97.7, -999.0
23-07-2022, 00:44:40,    279,    0.0,   14.7,   0.00,   0.00, 1015.6,   97.9, -999.0
23-07-2022, 00:44:50,    282,    0.0,   14.7,   0.00,   0.00, 1015.6,   98.0, -999.0
23-07-2022, 00:45:00,    280,    0.0,   14.7,   0.00,   0.00, 1015.6,   98.1, -999.0
23-07-2022, 00:45:10,    278,    0.0,   14.7,   0.00,   0.00, 1015.6,   98.1, -999.0
23-07-2022, 00:45:20,    278,    0.0,   14.7,   0.00,   0.00, 1015.6,   98.2, -999.0
23-07-2022, 00:45:29,    274,    0.0,   14.6,   0.00,   0.00, 1015.5,   98.1, -999.0
23-07-2022, 00:45:40,    238,    0.1,   14.6,   0.00,   0.00, 1015.6,   98.1, -999.0
23-07-2022, 00:45:50,    252,    0.3,   14.6,   0.00,   0.00, 1015.6,   98.1, -999.0
23-07-2022, 00:45:59,    254,    0.0,   14.5,   0.00,   0.00, 1015.6,   97.7, -999.0
23-07-2022, 00:46:09,    254,    0.0,   14.5,   0.00,   0.00, 1015.6,   97.4, -999.0
23-07-2022, 00:46:19,    254,    0.0,   14.4,   0.00,   0.00, 1015.5,   97.2, -999.0
23-07-2022, 00:46:29,    249,    0.0,   14.4,   0.00,   0.00, 1015.6,   97.4, -999.0
23-07-2022, 00:46:39,    235,    0.8,   14.5,   0.00,   0.00, 1015.7,   97.5, -999.0